Regional Weather Roundup
Issued by NWS State College, PA

Home | Current Version | Previous Version | Graphics & Text | Print | Product List | Glossary Off
Versions: 1 2 3 4 5 6 7 8 9 10 11 12 13 14 15 16 17 18 19 20 21 22 23 24 25 26 27 28 29 30 31 32 33 34 35 36 37 38 39 40 41 42 43 44 45 46 47 48 49 50

000
ASUS41 KCTP 220310
RWRCTP

REGIONAL WEATHER ROUNDUP
NATIONAL WEATHER SERVICE STATE COLLEGE PA
1100 PM EDT THU AUG 21 2014

Note: "fair" indicates few or no clouds below 12,000 feet with no
significant weather and/or obstructions to visibility.

* = STATION THAT DOES NOT REPORT PRECIPITATION /E.G. RAIN...SNOW...ETC/
    THUNDER OR FOG.

PAZ002>004-007>009-013>016-020>023-029>032-220400-
WESTERN PENNSYLVANIA

CITY           SKY/WX    TMP DP  RH WIND       PRES   REMARKS
ERIE           CLOUDY    73  68  84 CALM      30.00R
MEADVILLE      LGT RAIN  70  67  90 SW3       30.04R
FRANKLIN*      CLOUDY    68  64  88 SW6       30.06R
NEW CASTLE     NOT AVBL
BEAVER COUNTY  NOT AVBL
BUTLER*        CLOUDY    70  66  88 SW5       30.07S
PITTSBURGH INT MOCLDY    70  67  90 SW6       30.05R
PITTSBURGH     MOCLDY    70  66  87 S5        30.06R
INDIANA*       CLOUDY    70  68  94 SW7       30.10S
LATROBE        CLOUDY    72  70  94 S7        30.08R
WASHINGTON CO*   N/A     64  63  94 CALM      30.07S VSB 3/4
$$

PAZ004>006-010>012-017>019-024>028-033>037-041-042-045-046-049>053-220400-
CENTRAL PENNSYLVANIA

CITY           SKY/WX    TMP DP  RH WIND       PRES   REMARKS
BRADFORD       FOG       64  63  96 CALM      30.05F VSB 1/2
DUBOIS         CLOUDY    68  66  93 SW8       30.04F
CLEARFIELD     FOG       65  65 100 CALM      30.05S VSB 1/4
JOHNSTOWN      CLOUDY    68  64  87 W7        30.10R
ALTOONA        MOCLDY    69  65  86 SW5       30.07R
STATE COLLEGE  FOG       64  64 100 CALM      30.04S VSB 3/4
WILLIAMSPORT   MOCLDY    70  67  90 N7        29.99R
SELINSGROVE    MOCLDY    67  65  93 CALM      30.00  FOG
FT INDIANTOWN  PTCLDY    68  68 100 VRB3      30.01S
CAPITAL CITY   MOCLDY    68  67  96 CALM      30.01R
HARRISBURG     MOCLDY    70  67  90 CALM      30.00R
YORK           MOCLDY    67  65  93 NE3       30.00S
$$

PAZ038>040-043-044-047-048-054-055-060>062-067>071-220400-
EASTERN PENNSYLVANIA

CITY           SKY/WX    TMP DP  RH WIND       PRES   REMARKS
SCRANTON       MOCLDY    72  64  76 CALM      30.01F
MOUNT POCONO   CLOUDY    64  61  90 E13       30.07F
ALLENTOWN      CLOUDY    71  66  84 E9        30.02S
QUAKERTOWN*    CLOUDY    72  72 100 CALM      30.03S
READING        PTCLDY    74  70  87 S5        30.00R
LANCASTER      MOCLDY    72  69  90 SE3       30.00F
COATESVILLE    MOCLDY    72  72 100 SE3       30.02F
POTTSTOWN      MOCLDY    73  68  84 CALM      30.02F
BLUE BELL      PTCLDY    73  68  83 CALM      30.00S
DOYLESTOWN     TSTM      68  68 100 CALM      30.01S
WILLOW GROVE   NOT AVBL
NORTH PHILA    CLOUDY    73  64  73 SE6       30.03R
PHILADELPHIA   MOCLDY    74  67  78 S5        30.01S
$$



USA.gov is the U.S. government's official web portal to all federal, state and local government web resources and services.